Regional Weather Roundup
Issued by NWS Newport/Morehead, NC

Current Version | Previous Version | Graphics & Text | Print | Product List | Glossary Off
Versions: 1 2 3 4 5 6 7 8 9 10 11 12 13 14 15 16 17 18 19 20 21 22 23 24 25 26 27 28 29 30 31 32 33 34 35 36 37 38 39 40 41 42 43 44 45 46 47 48 49 50
000 ASUS42 KMHX 020725 RWRMHX WEATHER ROUNDUP FOR EASTERN NORTH CAROLINA NATIONAL WEATHER SERVICE NEWPORT/MOREHEAD CITY NC 300 AM EDT SUN AUG 02 2015 NOTE: "FAIR" INDICATES FEW OR NO CLOUDS BELOW 12,000 FEET WITH NO SIGNIFICANT WEATHER AND/OR OBSTRUCTIONS TO VISIBILITY NCZ015>017-031-032-045>047-102-103-020800- NORTH COAST CITY SKY/WX TMP DP RH WIND PRES REMARKS EDENTON N/A 77 74 88 W8 29.89S ELIZABETH CITY CLEAR 75 74 96 SW3 29.88F FOG KITTY HAWK SUNNY 78 74 85 SW6 29.88F MANTEO CLEAR 78 75 91 W10 29.89F $$ NCZ045>047-081-094-103-104-020800- CENTRAL COAST CITY SKY/WX TMP DP RH WIND PRES REMARKS FRISCO MOCLDY 79 75 87 W7 29.89F SWANQUARTER N/A 79 N/A N/A W5G18 29.85S $$ NCZ095-097-098-100-101-020800- SOUTHERN COAST CITY SKY/WX TMP DP RH WIND PRES REMARKS BEAUFORT CLEAR 79 76 90 W7 29.90F CEDAR ISLAND N/A 79 N/A N/A SW6G15 29.94S JACKSONVILLE CLEAR 74 72 93 SW3 29.90F PINEY ISLAND SUNNY N/A N/A N/A W9 29.89F WILMINGTON CLEAR 76 73 91 W3 29.91F $$ NCZ011>013-027>030-043-044-078>080-089-090>093-098-020800- COASTAL PLAIN CITY SKY/WX TMP DP RH WIND PRES REMARKS AHOSKIE CLEAR 68 65 90 CALM 29.91R CLINTON CLEAR 74 74 100 CALM 29.91F ELIZABETHTOWN CLEAR 75 73 93 CALM 29.91F GOLDSBORO CLEAR 76 75 96 S2 29.89S GREENVILLE CLEAR 73 73 100 W3 29.92F HAVELOCK CLEAR 75 73 93 W6 29.91F KENANSVILLE PTCLDY 74 72 94 CALM 29.92S KINSTON CLEAR 75 73 93 SW5 29.91S NEW BERN CLEAR 74 71 91 SW3 29.91F RICHLANDS CLEAR 72 66 83 CALM 29.90F ROCKY MOUNT PTCLDY 70 65 84 CALM 29.91S WASHINGTON PTCLDY 74 73 94 SW3 29.90F WHITEVILLE PTCLDY 74 72 91 CALM 29.91S $$ AMZ130-135-150-152-154-156-158-170-250-252-270-ANZ085-086-088-633-658-670-020800- MARINE OBSERVATIONS STATION/POSITION TIME TEMP WIND PRES WAVE SWELL AIR SEA DIR/SP/G HT/PER HT/PER (UTC) (F) (DEG/KT/KT) (MB) (FT/S) (FT/S) CHESAPEAKE LIGHT 0700 79 230/ 14/ 14 1012.2 64 E VA BEACH 0650 81 81 240/ 8/ 10 1011.6 3/ 8 3/ 8 DUCK 0700 80 76 240/ 9/ 12 1011.1 2 E DUCK 0611 79 N/A 2/11 OREGON INLET 0700 79 80 250/ 9/ 12 1011.8 13E OREGON INLT 0700 81 N/A 3/ 8 2/13 HATTERAS CG 0700 79 81 240/ 6/ 8 1011.9 DIAMOND BUOY 0650 81 84 270/ 14/ 17 1012.2 4/ 7 2/ 7 CAPE LOOKOUT 0700 80 260/ 10/ 12 1012.1 BEAUFORT LAB 0700 80 83 250/ 5/ 10 1011.7 30 SE NEW RVR IN NOT AVBL 27 SE WRIGHTSVLE 0700 78 82 280/ 10/ 12 N/A 5 SE WRIGHTSVLE 0608 81 83 270/ 10/ 14 1013.1 225 S CAPE HAT 0650 83 81 220/ 17/ 21 1015.4 6/ 6 41 SE CHARLESTON 0650 82 84 250/ 12/ 14 1012.1 4/ 6 3/ 6 $$

USA.gov is the U.S. government's official web portal to all federal, state and local government web resources and services.